Time,TemperatureF,DewpointF,PressureIn,WindDirection,WindDirectionDegrees,WindSpeedMPH,WindSpeedGustMPH,Humidity,HourlyPrecipIn,Conditions,Clouds,dailyrainin,SolarRadiationWatts/m^2,SoftwareType,DateUTC
2013-04-14 00:02:00,64.0,55.0,-100.00,SSE,147,1.0,-999.0,73,0.00,,,-99.99,0.000000,,2013-04-14 04:02:00,
2013-04-14 00:13:00,64.0,56.0,-100.00,SE,136,2.0,-999.0,75,0.00,,,-99.99,0.000000,,2013-04-14 04:13:00,
2013-04-14 00:23:00,64.0,56.0,-100.00,SE,136,2.0,-999.0,75,0.00,,,-99.99,0.000000,,2013-04-14 04:23:00,
2013-04-14 00:33:00,64.0,56.0,-100.00,SE,136,2.0,-999.0,75,0.00,,,-99.99,0.000000,,2013-04-14 04:33:00,
2013-04-14 00:43:00,62.0,56.0,-100.00,East,91,2.0,-999.0,79,0.00,,,-99.99,0.000000,,2013-04-14 04:43:00,
2013-04-14 00:52:00,62.0,56.0,-100.00,East,91,2.0,-999.0,79,0.00,,,-99.99,0.000000,,2013-04-14 04:52:00,
2013-04-14 01:03:00,63.0,56.0,-100.00,East,97,3.0,-999.0,79,0.00,,,-99.99,0.000000,,2013-04-14 05:03:00,
2013-04-14 01:12:00,63.0,56.0,-100.00,East,97,3.0,-999.0,79,0.00,,,-99.99,0.000000,,2013-04-14 05:12:00,
2013-04-14 01:22:00,63.0,56.0,-100.00,East,97,3.0,-999.0,79,0.00,,,-99.99,0.000000,,2013-04-14 05:22:00,
2013-04-14 01:32:00,63.0,56.0,-100.00,ESE,106,2.0,-999.0,79,0.00,,,-99.99,0.000000,,2013-04-14 05:32:00,
2013-04-14 01:42:00,62.0,56.0,-100.00,ENE,72,2.0,-999.0,81,0.00,,,-99.99,0.000000,,2013-04-14 05:42:00,
2013-04-14 01:52:00,62.0,56.0,-100.00,ENE,72,2.0,-999.0,81,0.00,,,-99.99,0.000000,,2013-04-14 05:52:00,
2013-04-14 02:02:00,61.0,57.0,-100.00,ENE,65,2.0,-999.0,84,0.00,,,-99.99,0.000000,,2013-04-14 06:02:00,
2013-04-14 02:12:00,62.0,58.0,-100.00,ENE,59,2.0,-999.0,86,0.00,,,-99.99,0.000000,,2013-04-14 06:12:00,
2013-04-14 02:22:00,62.0,58.0,-100.00,ENE,59,2.0,-999.0,86,0.00,,,-99.99,0.000000,,2013-04-14 06:22:00,
2013-04-14 02:32:00,63.0,59.0,-100.00,ENE,64,3.0,-999.0,86,0.00,,,-99.99,0.000000,,2013-04-14 06:32:00,
2013-04-14 02:42:00,62.0,58.0,-100.00,East,79,3.0,-999.0,86,0.00,,,-99.99,0.000000,,2013-04-14 06:42:00,
2013-04-14 02:53:00,62.0,58.0,-100.00,East,79,3.0,-999.0,86,0.00,,,-99.99,0.000000,,2013-04-14 06:53:00,
2013-04-14 03:02:00,62.0,58.0,-100.00,ENE,78,2.0,-999.0,88,0.00,,,-99.99,0.000000,,2013-04-14 07:02:00,
2013-04-14 03:12:00,62.0,58.0,-100.00,East,84,2.0,-999.0,89,0.00,,,-99.99,0.000000,,2013-04-14 07:12:00,
2013-04-14 03:22:00,62.0,58.0,-100.00,East,84,2.0,-999.0,89,0.00,,,-99.99,0.000000,,2013-04-14 07:22:00,
2013-04-14 03:32:00,62.0,59.0,-100.00,SE,144,2.0,-999.0,90,0.00,,,-99.99,0.000000,,2013-04-14 07:32:00,
2013-04-14 03:42:00,62.0,60.0,-100.00,ESE,110,1.0,-999.0,90,0.00,,,-99.99,0.000000,,2013-04-14 07:42:00,
2013-04-14 03:52:00,62.0,60.0,-100.00,ESE,110,1.0,-999.0,90,0.00,,,-99.99,0.000000,,2013-04-14 07:52:00,
2013-04-14 04:02:00,63.0,60.0,-100.00,ENE,73,3.0,-999.0,91,0.00,,,-99.99,0.000000,,2013-04-14 08:02:00,
2013-04-14 04:12:00,63.0,61.0,-100.00,East,80,4.0,-999.0,90,0.00,,,-99.99,0.000000,,2013-04-14 08:12:00,
2013-04-14 04:22:00,63.0,61.0,-100.00,East,80,4.0,-999.0,90,0.00,,,-99.99,0.000000,,2013-04-14 08:22:00,
2013-04-14 04:32:00,64.0,61.0,-100.00,ENE,78,4.0,-999.0,90,0.00,,,-99.99,0.000000,,2013-04-14 08:32:00,
2013-04-14 04:42:00,64.0,61.0,-100.00,East,80,4.0,-999.0,91,0.00,,,-99.99,0.000000,,2013-04-14 08:42:00,
2013-04-14 04:52:00,64.0,61.0,-100.00,East,80,4.0,-999.0,91,0.00,,,-99.99,0.000000,,2013-04-14 08:52:00,
2013-04-14 05:03:00,64.0,61.0,-100.00,ENE,77,4.0,-999.0,91,0.00,,,-99.99,0.000000,,2013-04-14 09:03:00,
2013-04-14 05:12:00,64.0,61.0,-100.00,ENE,77,3.0,-999.0,91,0.00,,,-99.99,0.000000,,2013-04-14 09:12:00,
2013-04-14 05:22:00,64.0,61.0,-100.00,ENE,77,3.0,-999.0,91,0.00,,,-99.99,0.000000,,2013-04-14 09:22:00,
2013-04-14 05:33:00,64.0,62.0,-100.00,ENE,64,4.0,-999.0,90,0.00,,,-99.99,0.000000,,2013-04-14 09:33:00,
2013-04-14 05:43:00,65.0,62.0,-100.00,ENE,60,6.0,-999.0,88,0.00,,,-99.99,0.000000,,2013-04-14 09:43:00,
2013-04-14 05:54:00,65.0,62.0,-100.00,ENE,60,6.0,-999.0,88,0.00,,,-99.99,0.000000,,2013-04-14 09:54:00,
2013-04-14 06:03:00,65.0,61.0,-100.00,ENE,69,5.0,-999.0,87,0.00,,,-99.99,0.000000,,2013-04-14 10:03:00,
2013-04-14 06:13:00,65.0,61.0,-100.00,ENE,71,5.0,-999.0,87,0.00,,,-99.99,0.000000,,2013-04-14 10:13:00,
2013-04-14 06:23:00,65.0,61.0,-100.00,ENE,71,5.0,-999.0,87,0.00,,,-99.99,0.000000,,2013-04-14 10:23:00,
2013-04-14 06:33:00,65.0,62.0,-100.00,ENE,74,5.0,-999.0,87,0.00,,,-99.99,0.000000,,2013-04-14 10:33:00,
2013-04-14 06:42:00,65.0,61.0,-100.00,East,80,5.0,-999.0,88,0.00,,,-99.99,0.000000,,2013-04-14 10:42:00,
2013-04-14 06:52:00,65.0,61.0,-100.00,East,80,5.0,-999.0,88,0.00,,,-99.99,0.000000,,2013-04-14 10:52:00,
2013-04-14 07:02:00,65.0,62.0,-100.00,ENE,68,5.0,-999.0,87,0.00,,,-99.99,0.000000,,2013-04-14 11:02:00,
2013-04-14 07:13:00,66.0,62.0,-100.00,ENE,70,5.0,-999.0,87,0.00,,,-99.99,0.900000,,2013-04-14 11:13:00,
2013-04-14 07:23:00,66.0,62.0,-100.00,ENE,70,5.0,-999.0,87,0.00,,,-99.99,0.900000,,2013-04-14 11:23:00,
2013-04-14 07:32:00,66.0,62.0,-100.00,ENE,75,4.0,-999.0,87,0.00,,,-99.99,7.100000,,2013-04-14 11:32:00,
2013-04-14 07:42:00,66.0,62.0,-100.00,ENE,64,4.0,-999.0,88,0.00,,,-99.99,28.600000,,2013-04-14 11:42:00,
2013-04-14 07:53:00,66.0,62.0,-100.00,ENE,64,4.0,-999.0,88,0.00,,,-99.99,28.600000,,2013-04-14 11:53:00,
2013-04-14 08:02:00,66.0,62.0,-100.00,East,86,3.0,-999.0,87,0.00,,,-99.99,59.000000,,2013-04-14 12:02:00,
2013-04-14 08:12:00,66.0,62.0,-100.00,East,86,3.0,-999.0,87,0.00,,,-99.99,59.000000,,2013-04-14 12:12:00,
2013-04-14 08:22:00,66.0,63.0,-100.00,East,79,3.0,-999.0,87,0.00,,,-99.99,71.400002,,2013-04-14 12:22:00,
2013-04-14 08:32:00,-999.0,-99.9,-100.00,East,86,4.0,-999.0,86,0.00,,,-99.99,72.000000,,2013-04-14 12:32:00,
2013-04-14 08:42:00,68.0,63.0,-100.00,East,80,6.0,-999.0,85,0.00,,,-99.99,94.699997,,2013-04-14 12:42:00,
2013-04-14 08:52:00,68.0,63.0,-100.00,East,80,6.0,-999.0,85,0.00,,,-99.99,94.699997,,2013-04-14 12:52:00,
2013-04-14 09:02:00,68.0,63.0,-100.00,East,81,8.0,-999.0,83,0.00,,,-99.99,126.599998,,2013-04-14 13:02:00,
2013-04-14 09:12:00,70.0,64.0,-100.00,East,87,7.0,-999.0,80,0.00,,,-99.99,305.000000,,2013-04-14 13:12:00,
2013-04-14 09:22:00,70.0,64.0,-100.00,East,87,7.0,-999.0,80,0.00,,,-99.99,305.000000,,2013-04-14 13:22:00,
2013-04-14 09:32:00,71.0,64.0,-100.00,East,94,8.0,-999.0,78,0.00,,,-99.99,168.899994,,2013-04-14 13:32:00,
2013-04-14 09:42:00,71.0,64.0,-100.00,East,94,8.0,-999.0,78,0.00,,,-99.99,168.899994,,2013-04-14 13:42:00,
2013-04-14 09:52:00,71.0,64.0,-100.00,East,97,8.0,-999.0,78,0.00,,,-99.99,161.899994,,2013-04-14 13:52:00,
2013-04-14 10:02:00,72.0,65.0,-100.00,East,96,8.0,-999.0,77,0.00,,,-99.99,231.300003,,2013-04-14 14:02:00,
2013-04-14 10:12:00,73.0,65.0,-100.00,East,88,8.0,-999.0,76,0.00,,,-99.99,310.100006,,2013-04-14 14:12:00,
2013-04-14 10:22:00,73.0,65.0,-100.00,East,88,8.0,-999.0,76,0.00,,,-99.99,310.100006,,2013-04-14 14:22:00,
2013-04-14 10:32:00,74.0,66.0,-100.00,East,95,8.0,-999.0,74,0.00,,,-99.99,277.500000,,2013-04-14 14:32:00,
2013-04-14 10:42:00,75.0,66.0,-100.00,East,96,7.0,-999.0,73,0.00,,,-99.99,190.399994,,2013-04-14 14:42:00,
2013-04-14 10:53:00,75.0,66.0,-100.00,East,96,7.0,-999.0,73,0.00,,,-99.99,190.399994,,2013-04-14 14:53:00,
2013-04-14 11:02:00,76.0,66.0,-100.00,East,93,10.0,-999.0,71,0.00,,,-99.99,303.500000,,2013-04-14 15:02:00,
2013-04-14 11:12:00,77.0,66.0,-100.00,ESE,102,10.0,-999.0,70,0.00,,,-99.99,319.700012,,2013-04-14 15:12:00,
2013-04-14 11:22:00,77.0,66.0,-100.00,ESE,102,10.0,-999.0,70,0.00,,,-99.99,319.700012,,2013-04-14 15:22:00,
2013-04-14 11:33:00,77.0,67.0,-100.00,East,93,9.0,-999.0,70,0.00,,,-99.99,311.799988,,2013-04-14 15:33:00,
2013-04-14 11:43:00,77.0,67.0,-100.00,East,93,9.0,-999.0,70,0.00,,,-99.99,311.799988,,2013-04-14 15:43:00,
2013-04-14 11:53:00,78.0,68.0,-100.00,East,96,10.0,-999.0,70,0.00,,,-99.99,510.700012,,2013-04-14 15:53:00,
2013-04-14 12:04:00,78.0,68.0,-100.00,East,88,10.0,-999.0,70,0.00,,,-99.99,338.500000,,2013-04-14 16:04:00,
2013-04-14 12:13:00,79.0,69.0,-100.00,ESE,104,8.0,-999.0,70,0.00,,,-99.99,437.299988,,2013-04-14 16:13:00,
2013-04-14 12:23:00,79.0,69.0,-100.00,ESE,104,8.0,-999.0,70,0.00,,,-99.99,437.299988,,2013-04-14 16:23:00,
2013-04-14 12:33:00,80.0,69.0,-100.00,ESE,110,9.0,-999.0,69,0.00,,,-99.99,479.500000,,2013-04-14 16:33:00,
2013-04-14 12:43:00,80.0,69.0,-100.00,ESE,118,9.0,-999.0,70,0.00,,,-99.99,312.899994,,2013-04-14 16:43:00,
2013-04-14 12:53:00,80.0,69.0,-100.00,ESE,118,9.0,-999.0,70,0.00,,,-99.99,312.899994,,2013-04-14 16:53:00,
2013-04-14 13:02:00,81.0,70.0,-100.00,ESE,120,10.0,-999.0,69,0.00,,,-99.99,593.500000,,2013-04-14 17:02:00,
2013-04-14 13:13:00,81.0,70.0,-100.00,ESE,120,10.0,-999.0,69,0.00,,,-99.99,593.500000,,2013-04-14 17:13:00,
2013-04-14 13:22:00,81.0,70.0,-100.00,SE,134,10.0,-999.0,69,0.00,,,-99.99,506.899994,,2013-04-14 17:22:00,
2013-04-14 13:33:00,82.0,71.0,-100.00,ESE,113,11.0,-999.0,68,0.00,,,-99.99,475.299988,,2013-04-14 17:33:00,
2013-04-14 13:42:00,82.0,71.0,-100.00,ESE,112,8.0,-999.0,69,0.00,,,-99.99,320.899994,,2013-04-14 17:42:00,
2013-04-14 13:53:00,82.0,71.0,-100.00,ESE,112,8.0,-999.0,69,0.00,,,-99.99,320.899994,,2013-04-14 17:53:00,
2013-04-14 14:03:00,83.0,71.0,-100.00,ESE,122,8.0,-999.0,67,0.00,,,-99.99,597.799988,,2013-04-14 18:03:00,
2013-04-14 14:12:00,84.0,71.0,-100.00,SE,127,8.0,-999.0,65,0.00,,,-99.99,598.000000,,2013-04-14 18:12:00,
2013-04-14 14:22:00,84.0,71.0,-100.00,SE,127,8.0,-999.0,65,0.00,,,-99.99,598.000000,,2013-04-14 18:22:00,
2013-04-14 14:32:00,84.0,71.0,-100.00,SE,133,9.0,-999.0,63,0.00,,,-99.99,408.299988,,2013-04-14 18:32:00,
2013-04-14 14:43:00,84.0,71.0,-100.00,SE,133,9.0,-999.0,63,0.00,,,-99.99,408.299988,,2013-04-14 18:43:00,
2013-04-14 14:53:00,85.0,70.0,-100.00,SE,145,10.0,-999.0,61,0.00,,,-99.99,520.599976,,2013-04-14 18:53:00,
2013-04-14 15:03:00,85.0,70.0,-100.00,SSE,148,9.0,-999.0,60,0.00,,,-99.99,457.600006,,2013-04-14 19:03:00,
2013-04-14 15:12:00,85.0,70.0,-100.00,SSE,148,9.0,-999.0,60,0.00,,,-99.99,457.600006,,2013-04-14 19:12:00,
2013-04-14 15:22:00,85.0,70.0,-100.00,South,169,8.0,-999.0,60,0.00,,,-99.99,509.700012,,2013-04-14 19:22:00,
2013-04-14 15:32:00,86.0,70.0,-100.00,SSE,158,8.0,-999.0,59,0.00,,,-99.99,464.299988,,2013-04-14 19:32:00,
2013-04-14 15:42:00,86.0,70.0,-100.00,SSE,158,8.0,-999.0,59,0.00,,,-99.99,464.299988,,2013-04-14 19:42:00,
2013-04-14 15:53:00,86.0,70.0,-100.00,SE,141,8.0,-999.0,58,0.00,,,-99.99,586.900024,,2013-04-14 19:53:00,
2013-04-14 16:03:00,88.0,69.0,-100.00,South,186,10.0,-999.0,53,0.00,,,-99.99,826.000000,,2013-04-14 20:03:00,
2013-04-14 16:13:00,88.0,70.0,-100.00,South,173,8.0,-999.0,54,0.00,,,-99.99,698.599976,,2013-04-14 20:13:00,
2013-04-14 16:22:00,88.0,70.0,-100.00,South,173,8.0,-999.0,54,0.00,,,-99.99,698.599976,,2013-04-14 20:22:00,
2013-04-14 16:33:00,88.0,70.0,-100.00,SSE,166,7.0,-999.0,54,0.00,,,-99.99,612.700012,,2013-04-14 20:33:00,
2013-04-14 16:43:00,88.0,69.0,-100.00,South,184,10.0,-999.0,53,0.00,,,-99.99,514.700012,,2013-04-14 20:43:00,
2013-04-14 16:52:00,88.0,69.0,-100.00,South,184,10.0,-999.0,53,0.00,,,-99.99,514.700012,,2013-04-14 20:52:00,
2013-04-14 17:02:00,88.0,69.0,-100.00,SSW,201,9.0,-999.0,53,0.00,,,-99.99,458.500000,,2013-04-14 21:02:00,
2013-04-14 17:12:00,87.0,69.0,-100.00,SSW,197,8.0,-999.0,54,0.00,,,-99.99,337.899994,,2013-04-14 21:12:00,
2013-04-14 17:23:00,87.0,69.0,-100.00,SSW,197,8.0,-999.0,54,0.00,,,-99.99,337.899994,,2013-04-14 21:23:00,
2013-04-14 17:33:00,87.0,69.0,-100.00,SSW,203,5.0,-999.0,55,0.00,,,-99.99,201.600006,,2013-04-14 21:33:00,
2013-04-14 17:43:00,86.0,70.0,-100.00,WSW,255,4.0,-999.0,58,0.00,,,-99.99,84.500000,,2013-04-14 21:43:00,
2013-04-14 17:53:00,86.0,70.0,-100.00,WSW,255,4.0,-999.0,58,0.00,,,-99.99,84.500000,,2013-04-14 21:53:00,
2013-04-14 18:03:00,82.0,70.0,-100.00,ENE,69,8.0,-999.0,67,0.00,,,-99.99,46.099998,,2013-04-14 22:03:00,
2013-04-14 18:13:00,79.0,70.0,-100.00,ENE,64,9.0,-999.0,72,0.00,,,-99.99,18.200001,,2013-04-14 22:13:00,
2013-04-14 18:23:00,79.0,70.0,-100.00,ENE,64,9.0,-999.0,72,0.00,,,-99.99,18.200001,,2013-04-14 22:23:00,
2013-04-14 18:33:00,77.0,71.0,-100.00,East,90,6.0,-999.0,82,0.03,,,-99.99,19.299999,,2013-04-14 22:33:00,
2013-04-14 18:44:00,76.0,72.0,-100.00,SE,143,5.0,-999.0,89,0.03,,,-99.99,110.099998,,2013-04-14 22:44:00,
2013-04-14 18:53:00,76.0,72.0,-100.00,SE,143,5.0,-999.0,89,0.03,,,-99.99,110.099998,,2013-04-14 22:53:00,
2013-04-14 19:02:00,76.0,73.0,-100.00,ESE,105,5.0,-999.0,90,0.00,,,-99.99,66.800003,,2013-04-14 23:02:00,
2013-04-14 19:12:00,76.0,73.0,-100.00,East,82,4.0,-999.0,91,0.00,,,-99.99,56.299999,,2013-04-14 23:12:00,
2013-04-14 19:22:00,76.0,73.0,-100.00,East,82,4.0,-999.0,91,0.00,,,-99.99,56.299999,,2013-04-14 23:22:00,
2013-04-14 19:33:00,76.0,73.0,-100.00,East,87,3.0,-999.0,91,0.00,,,-99.99,16.500000,,2013-04-14 23:33:00,
2013-04-14 19:43:00,75.0,73.0,-100.00,NE,44,6.0,-999.0,92,0.00,,,-99.99,2.400000,,2013-04-14 23:43:00,
2013-04-14 19:53:00,75.0,73.0,-100.00,NE,44,6.0,-999.0,92,0.00,,,-99.99,2.400000,,2013-04-14 23:53:00,
2013-04-14 20:02:00,74.0,72.0,-100.00,NNW,348,3.0,-999.0,92,0.00,,,-99.99,0.600000,,2013-04-15 00:02:00,
2013-04-14 20:13:00,74.0,72.0,-100.00,NNE,33,3.0,-999.0,92,0.00,,,-99.99,0.500000,,2013-04-15 00:13:00,
2013-04-14 20:23:00,74.0,72.0,-100.00,NNE,33,3.0,-999.0,92,0.00,,,-99.99,0.500000,,2013-04-15 00:23:00,
2013-04-14 20:33:00,73.0,72.0,-100.00,WNW,302,3.0,-999.0,93,0.00,,,-99.99,0.000000,,2013-04-15 00:33:00,
2013-04-14 20:42:00,73.0,72.0,-100.00,NNW,332,3.0,-999.0,94,0.00,,,-99.99,0.000000,,2013-04-15 00:42:00,
2013-04-14 20:52:00,73.0,72.0,-100.00,NNW,332,3.0,-999.0,94,0.00,,,-99.99,0.000000,,2013-04-15 00:52:00,
2013-04-14 21:02:00,74.0,72.0,-100.00,ESE,106,2.0,-999.0,93,0.00,,,-99.99,0.000000,,2013-04-15 01:02:00,
2013-04-14 21:13:00,74.0,72.0,-100.00,NE,52,1.0,-999.0,93,0.00,,,-99.99,0.000000,,2013-04-15 01:13:00,
2013-04-14 21:23:00,74.0,72.0,-100.00,NE,52,1.0,-999.0,93,0.00,,,-99.99,0.000000,,2013-04-15 01:23:00,
2013-04-14 21:32:00,73.0,72.0,-100.00,NNW,346,4.0,-999.0,94,0.08,,,-99.99,0.000000,,2013-04-15 01:32:00,
2013-04-14 21:42:00,71.0,69.0,-100.00,WNW,286,6.0,-999.0,93,0.11,,,-99.99,0.000000,,2013-04-15 01:42:00,
2013-04-14 21:52:00,71.0,69.0,-100.00,WNW,286,6.0,-999.0,93,0.11,,,-99.99,0.000000,,2013-04-15 01:52:00,
2013-04-14 22:03:00,70.0,68.0,-100.00,West,266,7.0,-999.0,93,0.00,,,-99.99,0.000000,,2013-04-15 02:03:00,
2013-04-14 22:12:00,69.0,67.0,-100.00,West,266,7.0,-999.0,93,0.08,,,-99.99,0.000000,,2013-04-15 02:12:00,
2013-04-14 22:22:00,69.0,67.0,-100.00,West,266,7.0,-999.0,93,0.08,,,-99.99,0.000000,,2013-04-15 02:22:00,
2013-04-14 22:32:00,68.0,66.0,-100.00,West,266,6.0,-999.0,92,0.08,,,-99.99,0.000000,,2013-04-15 02:32:00,
2013-04-14 22:42:00,68.0,66.0,-100.00,West,278,4.0,-999.0,92,0.00,,,-99.99,0.000000,,2013-04-15 02:42:00,
2013-04-14 22:53:00,68.0,66.0,-100.00,West,278,4.0,-999.0,92,0.00,,,-99.99,0.000000,,2013-04-15 02:53:00,
2013-04-14 23:03:00,68.0,66.0,-100.00,West,266,5.0,-999.0,93,0.00,,,-99.99,0.000000,,2013-04-15 03:03:00,
2013-04-14 23:12:00,68.0,66.0,-100.00,West,266,5.0,-999.0,93,0.00,,,-99.99,0.000000,,2013-04-15 03:12:00,
2013-04-14 23:22:00,67.0,66.0,-100.00,SW,224,4.0,-999.0,93,0.00,,,-99.99,0.000000,,2013-04-15 03:22:00,
2013-04-14 23:33:00,67.0,66.0,-100.00,SW,216,3.0,-999.0,94,0.00,,,-99.99,0.000000,,2013-04-15 03:33:00,
2013-04-14 23:43:00,67.0,66.0,-100.00,WSW,240,4.0,-999.0,95,0.03,,,-99.99,0.000000,,2013-04-15 03:43:00,
2013-04-14 23:55:00,67.0,66.0,-100.00,WSW,240,4.0,-999.0,95,0.03,,,-99.99,0.000000,,2013-04-15 03:55:00,